STARLINK-1676, 46556

Orbit data source: Space-Track

STARLINK-1676, 46556 is a payload satellite owned by SpaceX/Seattle (US) in LEO that was launched on Tue, 06 Oct 2020 UTC via an FALCON 9 launch vehicle from the Air Force Eastern Test Range (AFETR). Payload-class satellites include a variety of spacecraft equipped with specific instruments for various scientific and technological missions. These include communications satellites like Starlink; space stations such as the ISS; scientific satellites like the Hubble; Earth observation satellites from companies like Planet Labs, Umbra, and HawkEye 360; GPS; miniature CubeSats for education and research; and military/defense satellites.

Loading next visibility...
Identifier
46556, 2020-070AA
Orbit
LEO
Country
Flag of USUS
Related business
Manufacturer
SpaceX/Seattle
Mission
Partially operational Commercial Communications
Bus & Motor
STARLINK, Unknown motor
Mass
260 kg wet, ~248 kg dry
Launch date (UTC)
2020-10-06 (5 years ago)
Launch vehicle
FALCON 9
Launch site
Air Force Eastern Test Range (AFETR)
Object type
Payload
Rocket body
Debris
Shape & HBR
Box + 1 Pan, 10.1 m
Radar Cross Section
13.562 m², Large (>1 m²)

Expand to show TLE details & history
Last TLE update: 16 hours ago

TLE from 16 hours ago
0 STARLINK-1676
1 46556U 20070AA  25342.36839955  .00031515  00000-0  98160-3 0  9991
2 46556  53.0531 217.9810 0008464 115.9174 244.2699 15.32992337285862
Epoch: 2025-12-08T08:50Z
TLE epoch observation values (Epoch: 2025-12-08T08:50:29.721Z)
Latitude
-0.00007°
Longitude
7.98868°
Altitude
470.299 km
Speed
7.631 km/s
True Right ascension
14h 31m 55s
True Declination
0° 00' 00"
Sunlit
Object was in daylight at epoch
Visualization orbit readout
Latitude
Unknown
Longitude
Unknown
Altitude
Unknown
Speed
Unknown
Apparent Right ascension
Unknown
Apparent Declination
Unknown
Sunlit
N/A
Visualization observer readout
Local Sidereal Time
23:02:10
Azimuth
Unknown
Elevation
Unknown
Doppler factor
Unknown
Orbital elements
Apogee altitude
472.958 km
Perigee altitude
461.37 km
Semi-major axis
6,845.301 km
Eccentricity
0.00085
Inclination
53.0531°
RAAN
217.981°
Arg. of periapsis
115.9174°
True anomaly
244.18257°
Mean anomaly
244.2699°
Eccentric anomaly
244.22623°
Mean motion
3.83225 °/min
Orbital period
93.94 mins
BSTAR
0.0009816
Loading maneuver chart data...
Computing Atmospheric mass density...

Documentation

Showing up to 5 results
|